User: anonymous   Login
Location: Norwich
(52.6280°N, 1.3030°E)
Time: 16:40:28
(UTC+00:00)
Language:

ATLAS 5 CENTAUR R/B - Orbit

View from above orbital plane
View from above orbital plane
View from above satellite
View from above satellite

Ground track
Ground track

The orbit data is extracted from the following two-line orbital elements,

1 32379U 07060B   14298.96859066 0.00005100  00000-0  20508-2 0    06
2 32379  60.9714   4.6564 5192393 196.5395 136.7075  5.23287506    05
Epoch (UTC): 25 October 2014 23:14:46
Eccentricity: 0.5192393
inclination: 60.9714°
perigee height: 359 km
apogee height: 14913 km
right ascension of ascending node: 4.6564°
argument of perigee: 196.5395°
revolutions per day: 5.23287506
mean anomaly at epoch: 136.7075°
orbit number at epoch: 0

The dashed part of the orbit path shows where the satellite is in the earth's shadow,  

DLR